Weather History for Lincolnton, NC

Change the Weather History Date:

Monday, April 29, 2013

  Actual Average (KCLT) Record (KCLT)
Temperature  
Mean Temperature 62 °F 63 °F  
Max Temperature 71 °F 75 °F 91 °F (1888)
Min Temperature 53 °F 51 °F 33 °F (1973)
Degree Days  
Heating Degree Days 3 4  
Month to date heating degree days 195  
Since 1 July heating degree days 3327  
Cooling Degree Days 0 2  
Month to date cooling degree days 34  
Year to date cooling degree days 39  
Growing Degree Days 12 (Base 50)    
Moisture  
Dew Point 55 °F    
Average Humidity 85    
Maximum Humidity 100    
Minimum Humidity 53    
Precipitation  
Precipitation 0.16 in 0.09 in 2.19 in (1880)
Month to date precipitation 2.95  
Year to date precipitation 13.69  
Snow  
Snow 0.00 in 0.00 in 0.00 in ()
Month to date snowfall 0.0  
Since 1 July snowfall 4.3  
Snow Depth -    
Sea Level Pressure  
Sea Level Pressure 30.02 in    
Wind  
Wind Speed 1 mph (SW)    
Max Wind Speed 8 mph    
Max Gust Speed -    
Visibility 9 miles    
Events Rain    
T = Trace of Precipitation, MM = Missing Value Source: NWS Daily Summary

Daily Weather History Graph

Daily Weather History Graph

Search for Another Location

Airport:

Trip Planner

Search our weather history database for the weather conditions in past years. The results will help you decide how hot, cold, wet, or windy it might be!

Date:

Astronomy

Apr. 29, 2013 Rise Set
Actual Time 6:34 AM EDT 8:09 PM EDT
Civil Twilight 6:07 AM EDT 8:36 PM EDT
Nautical Twilight 5:35 AM EDT 9:09 PM EDT
Astronomical Twilight 5:00 AM EDT 9:43 PM EDT
Moon No Moon Rise 9:57 AM EDT (4/29)
Length of Visible Light 14h 28m
Length of Day
13h 34m
Waning Gibbous, 80% of the Moon is Illuminated
Apr 29
Waning Gibbous
May 2
Last Quarter
May 9
New
May 18
First Quarter
May 25
Full

Hourly Weather History & Observations

Time (EDT) Temp. Dew Point Humidity Pressure Visibility Wind Dir Wind Speed Gust Speed Precip Events Conditions
12:15 AM 53.6 °F 53.6 °F 100% 30.06 in 10.0 mi Calm Calm - 0.01 in Rain Light Rain
12:35 AM 53.6 °F 53.6 °F 100% 30.06 in 10.0 mi Calm Calm - 0.03 in Rain Light Rain
12:55 AM 55.4 °F 53.6 °F 94% 30.06 in 10.0 mi Calm Calm - 0.04 in Rain Rain
1:15 AM 55.4 °F 53.6 °F 94% 30.07 in 7.0 mi Calm Calm - 0.01 in Rain Light Rain
1:35 AM 55.4 °F 53.6 °F 94% 30.06 in 7.0 mi Calm Calm - 0.02 in Rain Rain
1:55 AM 55.4 °F 53.6 °F 94% 30.06 in 7.0 mi Calm Calm - 0.04 in Rain Light Rain
2:15 AM 55.4 °F 53.6 °F 94% 30.05 in 10.0 mi Calm Calm - 0.01 in Rain Rain
2:35 AM 55.4 °F 53.6 °F 94% 30.05 in 10.0 mi Calm Calm - 0.01 in Rain Light Rain
2:55 AM 55.4 °F 53.6 °F 94% 30.05 in 10.0 mi Calm Calm - 0.02 in Rain Light Rain
3:15 AM 55.4 °F 53.6 °F 94% 30.05 in 7.0 mi Calm Calm - N/A   Drizzle
3:35 AM 55.4 °F 53.6 °F 94% 30.04 in 5.0 mi Calm Calm - 0.02 in Rain Light Rain
3:55 AM 53.6 °F 53.6 °F 100% 30.03 in 7.0 mi Calm Calm - 0.03 in Rain Light Rain
4:15 AM 53.6 °F 53.6 °F 100% 30.01 in 4.0 mi Calm Calm - N/A Rain Light Rain
4:35 AM 53.6 °F 53.6 °F 100% 30.02 in 7.0 mi Calm Calm - 0.01 in   Drizzle
4:55 AM 53.6 °F 53.6 °F 100% 30.02 in 7.0 mi Calm Calm - 0.01 in   Drizzle
5:15 AM 53.6 °F 53.6 °F 100% 30.02 in 7.0 mi Calm Calm - N/A   Drizzle
5:35 AM 53.6 °F 53.6 °F 100% 30.02 in 7.0 mi Calm Calm - 0.01 in Rain Light Rain
5:55 AM 53.6 °F 53.6 °F 100% 30.02 in 5.0 mi Calm Calm - 0.01 in Rain Rain
6:15 AM 53.6 °F 53.6 °F 100% 30.02 in 5.0 mi Calm Calm - N/A   Overcast
6:35 AM 53.6 °F 53.6 °F 100% 30.04 in 7.0 mi Calm Calm - N/A   Overcast
6:55 AM 53.6 °F 53.6 °F 100% 30.05 in 5.0 mi Calm Calm - N/A   Overcast
7:15 AM 53.6 °F 53.6 °F 100% 30.05 in 4.0 mi Calm Calm - N/A   Overcast
7:35 AM 53.6 °F 53.6 °F 100% 30.05 in 7.0 mi Calm Calm - N/A   Overcast
7:55 AM 55.4 °F 53.6 °F 94% 30.05 in 10.0 mi Calm Calm - N/A   Overcast
8:15 AM 55.4 °F 53.6 °F 94% 30.05 in 7.0 mi Calm Calm - N/A Rain Light Rain
8:35 AM 55.4 °F 53.6 °F 94% 30.05 in 7.0 mi Calm Calm - N/A Rain Light Rain
8:55 AM 55.4 °F 53.6 °F 94% 30.05 in 10.0 mi Calm Calm - N/A   Drizzle
9:15 AM 55.4 °F 55.4 °F 100% 30.04 in 10.0 mi Calm Calm - N/A   Overcast
9:35 AM 55.4 °F 55.4 °F 100% 30.05 in 10.0 mi Calm Calm - N/A   Overcast
9:55 AM 57.2 °F 55.4 °F 94% 30.05 in 10.0 mi Calm Calm - N/A   Overcast
10:15 AM 57.2 °F 55.4 °F 94% 30.05 in 10.0 mi Calm Calm - N/A   Overcast
10:35 AM 57.2 °F 55.4 °F 94% 30.05 in 10.0 mi Calm Calm - N/A   Overcast
10:55 AM 59.0 °F 55.4 °F 88% 30.05 in 10.0 mi Calm Calm - N/A   Overcast
11:15 AM 59.0 °F 55.4 °F 88% 30.06 in 10.0 mi Calm Calm - N/A   Overcast
11:35 AM 59.0 °F 55.4 °F 88% 30.06 in 10.0 mi Calm Calm - N/A   Overcast
11:55 AM 60.8 °F 55.4 °F 82% 30.06 in 10.0 mi Calm Calm - N/A   Overcast
12:15 PM 60.8 °F 55.4 °F 82% 30.06 in 10.0 mi Calm Calm - N/A   Overcast
12:35 PM 60.8 °F 57.2 °F 88% 30.05 in 10.0 mi Calm Calm - N/A   Overcast
12:55 PM 62.6 °F 57.2 °F 82% 30.05 in 10.0 mi Calm Calm - N/A   Overcast
1:15 PM 62.6 °F 57.2 °F 82% 30.04 in 10.0 mi Calm Calm - N/A   Overcast
1:35 PM 62.6 °F 55.4 °F 77% 30.04 in 10.0 mi WSW 3.5 mph - N/A   Overcast
1:55 PM 66.2 °F 57.2 °F 73% 30.03 in 10.0 mi Calm Calm - N/A   Overcast
2:15 PM 66.2 °F 55.4 °F 68% 30.02 in 10.0 mi SW 3.5 mph - N/A   Mostly Cloudy
2:35 PM 68.0 °F 55.4 °F 64% 30.02 in 10.0 mi Calm Calm - N/A   Mostly Cloudy
2:55 PM 69.8 °F 55.4 °F 60% 30.01 in 10.0 mi WSW 6.9 mph - N/A   Mostly Cloudy
3:15 PM 69.8 °F 57.2 °F 64% 30.00 in 10.0 mi Calm Calm - N/A   Mostly Cloudy
3:35 PM 69.8 °F 55.4 °F 60% 29.99 in 10.0 mi WSW 6.9 mph - N/A   Mostly Cloudy
3:55 PM 69.8 °F 55.4 °F 60% 29.98 in 10.0 mi South 5.8 mph - N/A   Mostly Cloudy
4:15 PM 69.8 °F 55.4 °F 60% 29.97 in 10.0 mi SW 4.6 mph - N/A   Scattered Clouds
4:35 PM 71.6 °F 55.4 °F 57% 29.97 in 10.0 mi SSW 6.9 mph - N/A   Clear
4:55 PM 71.6 °F 55.4 °F 57% 29.96 in 10.0 mi SW 8.1 mph - N/A   Scattered Clouds
5:15 PM 71.6 °F 53.6 °F 53% 29.96 in 10.0 mi South 5.8 mph - N/A   Scattered Clouds
5:35 PM 71.6 °F 53.6 °F 53% 29.96 in 10.0 mi SW 3.5 mph - N/A   Scattered Clouds
5:55 PM 71.6 °F 53.6 °F 53% 29.95 in 10.0 mi SW 5.8 mph - N/A   Scattered Clouds
6:15 PM 71.6 °F 53.6 °F 53% 29.95 in 10.0 mi WSW 3.5 mph - N/A   Scattered Clouds
6:35 PM 69.8 °F 53.6 °F 56% 29.95 in 10.0 mi Calm Calm - N/A   Scattered Clouds
6:55 PM 71.6 °F 53.6 °F 53% 29.96 in 10.0 mi Calm Calm - N/A   Scattered Clouds
7:15 PM 69.8 °F 53.6 °F 56% 29.96 in 10.0 mi Calm Calm - N/A   Clear
7:35 PM 69.8 °F 53.6 °F 56% 29.96 in 10.0 mi Calm Calm - N/A   Clear
7:55 PM 64.4 °F 55.4 °F 73% 29.97 in 10.0 mi Calm Calm - N/A   Clear
8:15 PM 60.8 °F 57.2 °F 88% 29.98 in 10.0 mi Calm Calm - N/A   Clear
8:35 PM 60.8 °F 59.0 °F 94% 30.00 in 10.0 mi Calm Calm - N/A   Mostly Cloudy
8:55 PM 60.8 °F 59.0 °F 94% 30.00 in 10.0 mi Calm Calm - N/A   Scattered Clouds
9:15 PM 59.0 °F 59.0 °F 100% 30.00 in 10.0 mi Calm Calm - N/A   Mostly Cloudy
9:35 PM 59.0 °F 57.2 °F 94% 30.01 in 10.0 mi Calm Calm - N/A   Overcast
9:55 PM 59.0 °F 57.2 °F 94% 30.01 in 10.0 mi Calm Calm - N/A   Overcast
10:15 PM 59.0 °F 59.0 °F 100% 30.02 in 10.0 mi Calm Calm - N/A   Overcast
10:35 PM 59.0 °F 59.0 °F 100% 30.02 in 10.0 mi Calm Calm - N/A   Overcast
10:55 PM 59.0 °F 59.0 °F 100% 30.02 in 10.0 mi Calm Calm - 0.01 in Rain Light Rain
11:15 PM 60.8 °F 59.0 °F 94% 30.02 in 10.0 mi Calm Calm - N/A Rain Light Rain
11:35 PM 60.8 °F 59.0 °F 94% 30.02 in 10.0 mi Calm Calm - N/A Rain Light Rain
11:55 PM 60.8 °F 59.0 °F 94% 30.01 in 10.0 mi Calm Calm - N/A   Overcast